Location: Sawmill Trailhead
(33.5800°N, 116.4497°W)
Time: 13:50:45
(UTC-08:00)

Amateur Radio Satellites - All Passes

Search period start: 27 November 2014 13:20
Search period end: 28 November 2014 13:20
Location: Sawmill Trailhead, 33.5800°N, 116.4497°W

Satellite Date Start Highest point End Downlink Frequencies (MHz)
Time Altitude Azimuth
HORYU 2 27 Nov 13:26:31 13:29:46 20° 69° (ENE) 13:33:01 437.375
SO-50 27 Nov 13:36:04 13:38:31 14° 253° (WSW) 13:40:57 436.795
ITAMSAT 1 27 Nov 13:37:54 13:43:03 60° 259° (WSW) 13:48:12 435.822/435.867
MaSat-1 27 Nov 13:39:26 13:42:13 31° 110° (ESE) 13:44:47 437.345
PHONESAT 2.4 27 Nov 13:39:30 13:43:12 82° 335° (NNW) 13:46:55 2401.200-2431.200
VERMONT LUNAR 27 Nov 13:43:54 13:47:27 55° 339° (NNW) 13:51:01 437.305
AUBIESAT-1 27 Nov 14:02:27 14:06:37 29° 295° (WNW) 14:10:40 437.475
STARS 27 Nov 14:05:28 14:09:32 36° 99° (E) 14:13:34 437.465
M-CUBED/EXP-1 PRIME 27 Nov 14:09:12 14:13:01 23° 296° (WNW) 14:16:45 437.505
ITUPSAT 1 27 Nov 14:10:55 14:14:49 25° 291° (WNW) 14:18:43 437.325
Gurwin Techsat 1B 27 Nov 14:20:19 14:25:18 42° 261° (W) 14:30:20 435.225
SWISSCUBE 27 Nov 14:21:46 14:24:58 18° 293° (WNW) 14:28:09 437.505
JAS-2 27 Nov 14:28:36 14:31:52 13° 58° (ENE) 14:35:08 435.910
O/OREOS (USA 219) 27 Nov 14:40:57 14:44:49 28° 65° (ENE) 14:48:40 437.305
RS-15 27 Nov 14:43:29 14:54:08 57° 111° (ESE) 15:04:38 29.354- 29.394
KKS-1 27 Nov 14:49:42 14:53:53 41° 287° (WNW) 14:58:03 437.445
HORYU 2 27 Nov 15:02:23 15:06:13 29° 263° (W) 15:10:05 437.375
AO-7 27 Nov 15:05:21 15:13:37 81° 71° (ENE) 15:21:57 29.400- 29.500
YUBILEINY 27 Nov 15:15:25 15:20:35 18° 280° (W) 15:25:46 435.215
PHONESAT 2.4 27 Nov 15:18:59 15:22:18 30° 351° (N) 15:25:38 2401.200-2431.200
VERMONT LUNAR 27 Nov 15:23:13 15:26:21 27° 356° (N) 15:29:29 437.305
STARS 27 Nov 15:42:57 15:45:41 16° 292° (WNW) 15:48:25 437.465
MOZHAYETS 4 27 Nov 16:06:58 16:11:05 30° 97° (E) 16:15:09
JAS-2 27 Nov 16:07:58 16:15:30 74° 74° (ENE) 16:23:22 435.910
O/OREOS (USA 219) 27 Nov 16:20:39 16:24:00 21° 259° (WSW) 16:27:20 437.305
Cubesat XI-IV 27 Nov 16:31:41 16:36:12 28° 69° (ENE) 16:40:43 437.490
RS-15 27 Nov 16:56:54 17:06:47 38° 311° (NW) 17:16:44 29.354- 29.394
PHONESAT 2.4 27 Nov 16:58:21 17:01:41 30° 9° (N) 17:05:01 2401.200-2431.200
VERMONT LUNAR 27 Nov 17:02:02 17:05:23 34° 13° (NNE) 17:08:44 437.305
AO-7 27 Nov 17:02:08 17:07:05 17° 266° (W) 17:12:04 29.400- 29.500
CUTE-I 27 Nov 17:11:35 17:16:54 69° 75° (ENE) 17:22:14 437.470
GONETS M04 27 Nov 17:13:11 17:17:27 14° 66° (ENE) 17:21:42
STRAND 1 27 Nov 17:32:10 17:35:15 16° 94° (E) 17:38:19 437.568
MOZHAYETS 4 27 Nov 17:44:34 17:48:05 22° 291° (WNW) 17:51:34
CUBESAT XI-V 27 Nov 17:53:42 17:57:45 29° 97° (E) 18:01:44 437.345
JAS-2 27 Nov 17:55:57 18:01:03 19° 270° (W) 18:06:19 435.910
Cubesat XI-IV 27 Nov 18:11:29 18:16:08 30° 263° (W) 18:20:49 437.490
PRISM 27 Nov 18:14:50 18:18:57 51° 286° (WNW) 18:23:01 437.425
PHONESAT 2.4 27 Nov 18:37:03 18:40:47 84° 25° (NNE) 18:44:30 2401.200-2431.200
VERMONT LUNAR 27 Nov 18:40:25 18:44:01 64° 209° (SSW) 18:47:36 437.305
PCSat 27 Nov 18:41:55 18:47:19 88° 295° (WNW) 18:52:46 145.827
BEESAT 3 27 Nov 18:48:06 18:52:06 61° 116° (ESE) 18:56:11 437.485
CUTE-I 27 Nov 18:55:39 18:57:22 11° 268° (W) 18:59:05 437.470
SEEDS 27 Nov 19:01:18 19:03:00 12° 67° (ENE) 19:04:42 437.485
BEESAT 2 27 Nov 19:05:05 19:09:10 88° 118° (ESE) 19:13:20 435.950
GONETS M04 27 Nov 19:06:38 19:15:30 86° 84° (E) 19:24:16
STRAND 1 27 Nov 19:09:45 19:14:38 47° 287° (WNW) 19:19:28 437.568
AAUSAT CUBESAT 2 27 Nov 19:14:00 19:15:49 13° 67° (ENE) 19:17:38 437.432
HO-68 27 Nov 19:14:11 19:20:50 43° 68° (ENE) 19:27:31 435.675
GOMX 1 27 Nov 19:15:52 19:18:56 17° 70° (ENE) 19:21:52 467.674
RS-15 27 Nov 19:20:29 19:23:47 12° 343° (NNW) 19:27:06 29.354- 29.394
AIST 1 27 Nov 19:21:22 19:25:40 54° 278° (W) 19:30:00
COMPASS 1 27 Nov 19:29:07 19:32:21 22° 71° (ENE) 19:35:36 437.405
CANX-2 27 Nov 19:29:46 19:33:35 35° 73° (ENE) 19:37:27 2200.000
CUBESAT XI-V 27 Nov 19:31:25 19:34:59 22° 291° (WNW) 19:38:32 437.345
DX 1 27 Nov 19:41:46 19:43:50 13° 66° (ENE) 19:45:54 434.975-435.025
AIST 2 27 Nov 19:48:19 19:52:29 64° 300° (WNW) 19:56:44 435.215
BRITE-PL 27 Nov 19:52:28 19:57:29 65° 76° (ENE) 20:02:06 437.365/2234.400
DOVE 4 27 Nov 20:01:06 20:05:25 39° 74° (ENE) 20:09:30 437.250
CUTE 1.7 + AOD 2 27 Nov 20:03:43 20:07:55 87° 78° (ENE) 20:12:09 437.475
ZACube-1 27 Nov 20:12:23 20:14:08 12° 67° (ENE) 20:15:52 437.345
PHONESAT 2.4 27 Nov 20:16:46 20:19:15 17° 218° (SW) 20:21:43 2401.200-2431.200
VELOX 1 27 Nov 20:21:32 20:22:34 11° 65° (ENE) 20:23:36 145.980
CINEMA 3 27 Nov 20:22:18 20:26:23 39° 74° (ENE) 20:30:22 145.822/145.860
BEESAT 3 27 Nov 20:29:20 20:30:43 11° 312° (NW) 20:32:07 437.485
PCSat 27 Nov 20:29:42 20:31:29 12° 312° (NW) 20:33:16 145.827
SEEDS 27 Nov 20:34:25 20:38:24 44° 261° (W) 20:42:25 437.485
UKube-1 27 Nov 20:37:41 20:41:57 59° 75° (ENE) 20:46:14 .
DELFI C3 27 Nov 20:41:55 20:45:54 61° 76° (ENE) 20:49:57 145.870
FUNcube-1 27 Nov 20:44:42 20:48:23 30° 72° (ENE) 20:52:02 145.935
AISAT 27 Nov 20:46:26 20:49:52 22° 69° (ENE) 20:53:18 437.250
AAUSAT CUBESAT 2 27 Nov 20:47:09 20:51:05 42° 261° (W) 20:55:03 437.432
Oscar 11 27 Nov 20:47:25 20:51:42 88° 77° (ENE) 20:56:02 145.826/435.025
50 SAT 27 Nov 20:50:13 20:52:45 16° 69° (ENE) 20:55:16 437.505
GOMX 1 27 Nov 20:52:19 20:56:48 37° 261° (W) 21:01:01 467.674
HO-68 27 Nov 21:02:23 21:08:33 31° 263° (W) 21:14:46 435.675
COMPASS 1 27 Nov 21:04:39 21:07:57 23° 264° (W) 21:11:17 437.405
GONETS M04 27 Nov 21:06:32 21:11:03 15° 281° (W) 21:15:33
CANX-2 27 Nov 21:07:16 21:09:37 15° 266° (W) 21:11:59 2200.000
HUMSAT D 27 Nov 21:13:50 21:17:42 40° 74° (ENE) 21:21:33 437.325/437.525
UWE-3 27 Nov 21:15:26 21:19:41 89° 258° (WSW) 21:23:52 435.000/436.395/437.385
DX 1 27 Nov 21:15:26 21:19:38 46° 260° (W) 21:23:51 434.975-435.025
CUBEBUG 2 27 Nov 21:19:34 21:23:50 67° 259° (W) 21:28:00 437.445
JUGNU 27 Nov 21:20:03 21:22:47 13° 166° (SSE) 21:25:31 437.505
UNISAT 6 27 Nov 21:21:27 21:23:54 14° 94° (E) 21:26:22 437.425
BRITE-PL 27 Nov 21:35:28 21:36:10 10° 267° (W) 21:36:52 437.365/2234.400
RS-15 27 Nov 21:38:37 21:43:43 14° 23° (NNE) 21:48:53 29.354- 29.394
DOVE 4 27 Nov 21:40:39 21:43:15 15° 265° (W) 21:45:46 437.250
POLYITAN 1 27 Nov 21:44:17 21:46:58 16° 95° (E) 21:49:39 437.675
QB50P2 27 Nov 21:45:23 21:48:09 17° 95° (E) 21:50:55 145.880/145.840
ZACube-1 27 Nov 21:46:06 21:50:07 43° 261° (W) 21:54:06 437.345
ANTELSAT 27 Nov 21:49:07 21:53:07 31° 98° (E) 21:57:10 437.575/2403.000
DUCHIFAT 1 27 Nov 21:49:50 21:52:49 19° 95° (E) 21:55:47 145.980
VELOX 1 27 Nov 21:54:11 21:58:36 60° 259° (W) 22:03:02 145.980
ISS 27 Nov 21:58:11 22:01:26 62° 318° (NW) 22:04:42 145.825
ESTCUBE 1 27 Nov 22:00:15 22:04:40 54° 74° (ENE) 22:09:07 437.505/2401.250
CINEMA 3 27 Nov 22:01:31 22:03:42 14° 266° (W) 22:05:51 145.822/145.860
NANOSAT C BR1 27 Nov 22:08:55 22:12:44 32° 98° (E) 22:16:31 145.865
SPROUT 27 Nov 22:09:03 22:10:49 12° 67° (ENE) 22:12:34 437.525
BUGSAT 1 27 Nov 22:18:46 22:22:27 33° 98° (E) 22:26:06 437.445
QB50P1 27 Nov 22:18:56 22:22:59 43° 99° (E) 22:27:00 145.935-145.965
FUNcube-1 27 Nov 22:22:03 22:24:45 17° 265° (W) 22:27:27 145.935
AISAT 27 Nov 22:22:30 22:26:19 27° 263° (W) 22:30:09 437.250
50 SAT 27 Nov 22:24:15 22:27:48 29° 262° (W) 22:31:20 437.505
CUBEBUG 1 27 Nov 22:26:40 22:31:07 76° 258° (WSW) 22:35:34 437.445
TIGRISAT 27 Nov 22:41:31 22:45:57 65° 284° (WNW) 22:50:28 435.000
POPSAT HIP 1 27 Nov 22:43:53 22:48:07 89° 283° (WNW) 22:52:20 437.405
CUSAT 1 27 Nov 22:51:13 22:56:14 44° 81° (E) 23:02:45 437.405
HUMSAT D 27 Nov 22:51:58 22:53:39 12° 267° (W) 22:55:20 437.325/437.525
UNISAT 6 27 Nov 22:56:34 23:00:48 42° 286° (WNW) 23:05:07 437.425
JUGNU 27 Nov 23:06:54 23:11:06 20° 175° (S) 23:15:20 437.505
AUBIESAT-1 27 Nov 23:14:15 23:17:02 18° 62° (ENE) 23:19:58 437.475
POLYITAN 1 27 Nov 23:19:12 23:22:57 32° 288° (WNW) 23:26:42 437.675
QB50P2 27 Nov 23:20:22 23:24:06 31° 288° (WNW) 23:27:49 145.880/145.840
M-CUBED/EXP-1 PRIME 27 Nov 23:20:30 23:23:43 23° 64° (ENE) 23:27:10 437.505
MaSat-1 27 Nov 23:21:50 23:23:05 13° 63° (ENE) 23:24:22 437.345
SRMSAT 27 Nov 23:22:11 23:25:48 17° 169° (S) 23:29:26 437.500
DUCHIFAT 1 27 Nov 23:25:05 23:28:40 28° 289° (WNW) 23:32:14 145.980
TISAT 1 27 Nov 23:25:32 23:29:46 65° 259° (WSW) 23:34:01 437.305
DANDE 27 Nov 23:26:22 23:31:27 78° 82° (E) 23:38:19 436.750
ANTELSAT 27 Nov 23:26:23 23:29:42 21° 290° (WNW) 23:33:03 437.575/2403.000
ITUPSAT 1 27 Nov 23:36:40 23:40:14 21° 68° (ENE) 23:43:48 437.325
ESTCUBE 1 27 Nov 23:40:30 23:41:48 11° 268° (W) 23:43:07 437.505/2401.250
SPROUT 27 Nov 23:42:17 23:46:27 47° 260° (W) 23:50:37 437.525
NANOSAT C BR1 27 Nov 23:45:40 23:48:20 17° 291° (WNW) 23:50:59 145.865
SWISSCUBE 27 Nov 23:46:05 23:50:13 29° 70° (ENE) 23:54:21 437.505
RS-15 27 Nov 23:49:15 23:59:59 47° 53° (NE) 00:11:07 29.354- 29.394
BUGSAT 1 27 Nov 23:55:22 23:57:38 15° 292° (WNW) 23:59:54 437.445
QB50P1 27 Nov 23:56:37 23:58:27 13° 293° (WNW) 00:00:17 145.935-145.965
BEESAT 28 Nov 00:16:01 00:20:42 57° 74° (ENE) 00:25:24 436.000
YUBILEINY 28 Nov 00:19:42 00:24:35 16° 80° (E) 00:29:27 435.215
CUSAT 1 28 Nov 00:35:07 00:39:17 22° 266° (W) 00:44:16 437.405
AUBIESAT-1 28 Nov 00:48:03 00:51:41 33° 259° (W) 00:55:38 437.475
M-CUBED/EXP-1 PRIME 28 Nov 00:55:19 00:58:38 25° 261° (W) 01:02:12 437.505
JUGNU 28 Nov 00:55:20 00:59:30 20° 186° (S) 01:03:40 437.505
Oscar 19 28 Nov 00:56:51 01:01:52 49° 100° (E) 01:06:52 437.125/150
STARS 28 Nov 00:59:41 01:02:55 20° 69° (ENE) 01:06:10 437.465
SRMSAT 28 Nov 01:09:55 01:14:20 21° 179° (S) 01:18:46 437.500
DANDE 28 Nov 01:13:26 01:14:52 11° 269° (W) 01:16:23 436.750
ITUPSAT 1 28 Nov 01:13:32 01:17:52 33° 262° (W) 01:22:14 437.325
SWISSCUBE 28 Nov 01:24:11 01:28:00 24° 264° (W) 01:31:51 437.505
KKS-1 28 Nov 01:43:41 01:48:08 78° 258° (WSW) 01:52:35 437.445
ITAMSAT 1 28 Nov 01:54:52 02:00:01 69° 102° (ESE) 02:05:09 435.822/435.867
BEESAT 28 Nov 01:57:14 01:58:50 12° 268° (W) 02:00:26 436.000
RS-15 28 Nov 02:01:43 02:12:18 47° 251° (WSW) 02:23:21 29.354- 29.394
SO-50 28 Nov 02:04:45 02:09:00 45° 114° (ESE) 02:13:22 436.795
YUBILEINY 28 Nov 02:11:23 02:20:12 82° 276° (W) 02:29:02 435.215
STARS 28 Nov 02:35:24 02:39:12 28° 263° (W) 02:43:01 437.465
Oscar 19 28 Nov 02:37:33 02:40:45 17° 294° (WNW) 02:43:58 437.125/150
Gurwin Techsat 1B 28 Nov 02:40:18 02:45:37 75° 285° (WNW) 02:50:53 435.225
JUGNU 28 Nov 02:45:27 02:47:50 12° 195° (SSW) 02:50:14 437.505
HORYU 2 28 Nov 02:57:17 03:01:47 73° 102° (ESE) 03:06:17 437.375
SRMSAT 28 Nov 02:58:56 03:02:53 18° 189° (S) 03:06:50 437.500
MOZHAYETS 4 28 Nov 03:06:02 03:09:13 19° 68° (ENE) 03:12:24
AO-7 28 Nov 03:12:04 03:19:32 35° 99° (E) 03:26:56 29.400- 29.500
BEESAT 3 28 Nov 03:13:23 03:15:25 13° 49° (NE) 03:17:26 437.485
JAS-2 28 Nov 03:28:20 03:29:16 10° 86° (E) 03:30:12 435.910
BEESAT 2 28 Nov 03:30:06 03:32:58 18° 52° (NE) 03:35:49 435.950
PCSat 28 Nov 03:34:17 03:39:07 32° 57° (ENE) 03:43:54 145.827
ITAMSAT 1 28 Nov 03:36:53 03:38:52 12° 297° (WNW) 03:40:51 435.822/435.867
SO-50 28 Nov 03:46:44 03:49:46 17° 311° (NW) 03:52:51 436.795
YUBILEINY 28 Nov 04:14:29 04:18:17 13° 295° (WNW) 04:22:05 435.215
AIST 2 28 Nov 04:14:37 04:18:12 25° 54° (NE) 04:21:44 435.215
ISS 28 Nov 04:30:11 04:32:52 23° 35° (NE) 04:35:33 145.825
MOZHAYETS 4 28 Nov 04:41:59 04:46:09 34° 262° (W) 04:50:21
STRAND 1 28 Nov 04:44:36 04:47:46 17° 66° (ENE) 04:50:55 437.568
O/OREOS (USA 219) 28 Nov 04:48:34 04:53:02 72° 108° (ESE) 04:57:29 437.305
BEESAT 3 28 Nov 04:49:52 04:53:56 52° 245° (WSW) 04:57:56 437.485
CUBESAT XI-V 28 Nov 04:54:03 04:57:22 19° 69° (ENE) 05:00:41 437.345
Cubesat XI-IV 28 Nov 04:54:08 04:57:06 15° 93° (E) 05:00:04 437.490
PRISM 28 Nov 05:01:29 05:05:38 67° 75° (ENE) 05:09:51 437.425
AO-7 28 Nov 05:04:30 05:12:18 46° 294° (WNW) 05:20:06 29.400- 29.500
BEESAT 2 28 Nov 05:07:31 05:11:22 36° 247° (WSW) 05:15:09 435.950
JAS-2 28 Nov 05:08:31 05:15:22 88° 284° (WNW) 05:21:20 435.910
PCSat 28 Nov 05:17:47 05:22:23 29° 252° (WSW) 05:26:57 145.827
CUTE-I 28 Nov 05:33:12 05:38:07 38° 99° (E) 05:43:01 437.470
AIST 1 28 Nov 05:33:32 05:37:04 24° 77° (ENE) 05:40:34
AIST 2 28 Nov 05:53:14 05:56:43 25° 249° (WSW) 06:00:09 435.215
ISS 28 Nov 06:06:38 06:09:29 27° 230° (SW) 06:12:21 145.825
GONETS M04 28 Nov 06:09:23 06:15:00 19° 81° (E) 06:20:37
STRAND 1 28 Nov 06:21:31 06:26:29 50° 260° (W) 06:31:29 437.568
CUBESAT XI-V 28 Nov 06:30:12 06:34:31 35° 262° (W) 06:38:51 437.345
Cubesat XI-IV 28 Nov 06:32:17 06:37:27 54° 287° (WNW) 06:42:36 437.490
JAS-2 28 Nov 06:56:37 06:59:09 12° 303° (WNW) 07:01:35 435.910
AIST 1 28 Nov 07:11:16 07:14:33 21° 271° (W) 07:17:48
CUTE-I 28 Nov 07:13:53 07:17:54 22° 293° (WNW) 07:21:54 437.470
CUTE 1.7 + AOD 2 28 Nov 07:54:08 07:57:21 20° 95° (E) 08:00:34 437.475
BRITE-PL 28 Nov 08:01:55 08:05:18 24° 97° (E) 08:08:46 437.365/2234.400
GONETS M04 28 Nov 08:02:00 08:10:46 74° 277° (W) 08:19:39
DOVE 4 28 Nov 08:05:38 08:07:43 13° 94° (E) 08:09:50 437.250
CINEMA 3 28 Nov 08:22:50 08:24:41 12° 94° (E) 08:26:33 145.822/145.860
SEEDS 28 Nov 08:23:11 08:27:13 39° 99° (E) 08:31:13 437.485
DELFI C3 28 Nov 08:28:53 08:30:35 12° 93° (E) 08:32:15 145.870
UKube-1 28 Nov 08:31:27 08:33:37 14° 94° (E) 08:35:47 .
HO-68 28 Nov 08:33:14 08:40:22 65° 103° (ESE) 08:47:26 435.675
AAUSAT CUBESAT 2 28 Nov 08:34:47 08:38:46 39° 99° (E) 08:42:44 437.432
Oscar 11 28 Nov 08:39:42 08:43:04 21° 96° (E) 08:46:24 145.826/435.025
ANTELSAT 28 Nov 08:46:02 08:48:43 17° 68° (ENE) 08:51:24 437.575/2403.000
COMPASS 1 28 Nov 08:51:43 08:55:58 76° 102° (ESE) 09:00:13 437.405
CANX-2 28 Nov 08:54:46 08:59:01 63° 284° (WNW) 09:03:17 2200.000
GOMX 1 28 Nov 08:57:39 09:01:52 83° 102° (ESE) 09:06:15 467.674
NANOSAT C BR1 28 Nov 08:59:22 09:01:56 16° 68° (ENE) 09:04:30 145.865
BUGSAT 1 28 Nov 09:06:28 09:09:02 16° 68° (ENE) 09:11:35 437.445
DX 1 28 Nov 09:08:01 09:12:06 39° 99° (E) 09:16:09 434.975-435.025
QB50P1 28 Nov 09:08:59 09:12:08 21° 70° (ENE) 09:15:18 145.935-145.965
UWE-3 28 Nov 09:09:59 09:13:29 24° 97° (E) 09:17:03 435.000/436.395/437.385
CUBEBUG 2 28 Nov 09:14:55 09:18:48 32° 98° (E) 09:22:46 437.445
CUTE 1.7 + AOD 2 28 Nov 09:29:37 09:33:13 27° 288° (WNW) 09:36:49 437.475
POPSAT HIP 1 28 Nov 09:33:13 09:37:12 40° 73° (ENE) 09:41:10 437.405
TIGRISAT 28 Nov 09:36:41 09:40:54 67° 76° (ENE) 09:45:07 435.000
ZACube-1 28 Nov 09:38:40 09:42:47 45° 99° (E) 09:46:58 437.345
BRITE-PL 28 Nov 09:40:35 09:43:42 21° 289° (WNW) 09:46:54 437.365/2234.400
DOVE 4 28 Nov 09:41:39 09:45:35 39° 286° (WNW) 09:49:41 437.250
VELOX 1 28 Nov 09:49:29 09:53:31 34° 98° (E) 09:57:31 145.980
UNISAT 6 28 Nov 09:51:48 09:56:04 77° 258° (WSW) 10:00:20 437.425
CINEMA 3 28 Nov 09:57:58 10:02:01 43° 286° (WNW) 10:06:13 145.822/145.860
ESTCUBE 1 28 Nov 09:58:40 10:01:25 16° 94° (E) 10:04:08 437.505/2401.250
SEEDS 28 Nov 10:00:23 10:02:40 14° 292° (WNW) 10:04:58 437.485
DELFI C3 28 Nov 10:02:08 10:06:01 40° 286° (WNW) 10:09:54 145.870
UKube-1 28 Nov 10:05:52 10:09:55 40° 287° (WNW) 10:13:57 .
GONETS M04 28 Nov 10:06:39 10:09:07 11° 296° (WNW) 10:11:35
POLYITAN 1 28 Nov 10:08:09 10:12:23 72° 258° (WSW) 10:16:38 437.675
50 SAT 28 Nov 10:08:41 10:12:38 48° 100° (E) 10:16:36 437.505
QB50P2 28 Nov 10:09:04 10:13:19 70° 259° (WSW) 10:17:33 145.880/145.840
AAUSAT CUBESAT 2 28 Nov 10:11:51 10:14:04 14° 292° (WNW) 10:16:17 437.432
FUNcube-1 28 Nov 10:12:52 10:17:07 68° 284° (WNW) 10:21:27 145.935
DUCHIFAT 1 28 Nov 10:13:21 10:17:34 63° 259° (W) 10:21:47 145.980
Oscar 11 28 Nov 10:15:32 10:19:09 26° 289° (WNW) 10:22:46 145.826/435.025
AISAT 28 Nov 10:17:06 10:21:32 78° 102° (ESE) 10:25:56 437.250
CUBEBUG 1 28 Nov 10:20:34 10:24:15 26° 97° (E) 10:27:53 437.445
ANTELSAT 28 Nov 10:21:24 10:25:15 33° 262° (W) 10:29:06 437.575/2403.000
HO-68 28 Nov 10:22:21 10:27:24 21° 299° (WNW) 10:32:27 435.675
NANOSAT C BR1 28 Nov 10:33:37 10:37:30 35° 262° (W) 10:41:24 145.865
HUMSAT D 28 Nov 10:37:54 10:42:01 56° 285° (WNW) 10:46:10 437.325/437.525
BUGSAT 1 28 Nov 10:40:19 10:44:13 35° 262° (W) 10:48:07 437.445
SO-50 28 Nov 10:40:51 10:44:04 17° 49° (NE) 10:47:17 436.795
QB50P1 28 Nov 10:44:17 10:47:51 26° 263° (W) 10:51:26 145.935-145.965
DX 1 28 Nov 10:45:33 10:47:58 15° 293° (WNW) 10:50:23 434.975-435.025
UWE-3 28 Nov 10:46:31 10:49:54 23° 289° (WNW) 10:53:21 435.000/436.395/437.385
CUBEBUG 2 28 Nov 10:52:25 10:55:15 18° 290° (WNW) 10:58:09 437.445
POPSAT HIP 1 28 Nov 11:11:12 11:13:14 13° 266° (W) 11:15:16 437.405
TISAT 1 28 Nov 11:15:18 11:18:51 26° 97° (E) 11:22:22 437.305
ZACube-1 28 Nov 11:16:52 11:18:46 13° 292° (WNW) 11:20:41 437.345
VELOX 1 28 Nov 11:26:56 11:29:48 17° 292° (WNW) 11:32:39 145.980
VERMONT LUNAR 28 Nov 11:28:53 11:31:45 23° 144° (SE) 11:34:39 437.305
PHONESAT 2.4 28 Nov 11:29:38 11:31:54 16° 141° (SE) 11:34:11 2401.200-2431.200
SPROUT 28 Nov 11:33:18 11:37:19 38° 99° (E) 11:41:17 437.525
ESTCUBE 1 28 Nov 11:34:12 11:38:24 38° 287° (WNW) 11:42:33 437.505/2401.250
50 SAT 28 Nov 11:46:30 11:47:29 11° 293° (WNW) 11:48:28 437.505
CUBEBUG 1 28 Nov 11:57:10 12:00:26 21° 290° (WNW) 12:03:42 437.445
CUSAT 1 28 Nov 12:02:16 12:04:57 54° 97° (E) 12:07:29 437.405
Oscar 19 28 Nov 12:09:50 12:14:42 47° 73° (ENE) 12:19:35 437.125/150
SO-50 28 Nov 12:20:09 12:24:55 54° 245° (WSW) 12:29:41 436.795
Gurwin Techsat 1B 28 Nov 12:21:15 12:23:18 12° 63° (ENE) 12:25:22 435.225
BEESAT 28 Nov 12:21:26 12:24:59 21° 95° (E) 12:28:31 436.000
YUBILEINY 28 Nov 12:27:05 12:35:10 41° 77° (ENE) 12:43:11 435.215
AUBIESAT-1 28 Nov 12:34:30 12:38:47 30° 101° (E) 12:42:52 437.475
DANDE 28 Nov 12:40:39 12:43:14 33° 280° (W) 12:45:39 436.750
M-CUBED/EXP-1 PRIME 28 Nov 12:41:28 12:46:05 40° 102° (ESE) 12:50:30 437.505
TISAT 1 28 Nov 12:51:25 12:54:30 20° 290° (WNW) 12:57:34 437.305
VERMONT LUNAR 28 Nov 13:06:26 13:10:01 64° 338° (NNW) 13:13:37 437.305
PHONESAT 2.4 28 Nov 13:06:38 13:10:20 89° 335° (NNW) 13:14:03 2401.200-2431.200
ITAMSAT 1 28 Nov 13:08:46 13:13:56 69° 75° (ENE) 13:19:07 435.822/435.867
SPROUT 28 Nov 13:10:42 13:13:02 15° 292° (WNW) 13:15:22 437.525
